Presure
239 235 231 232 232 225 228 231 231 225 238 237 258 269 289 294 302 371 410 404 364 356 376 398 407 414 369 348 262 328 200 234 242 244 238 232 230 240 222 230 236 223 216 232
224 221 224 219 241 229 235 227 223 220 237 230 247 245 284 287 284 316 357 376 378 382 382 340 350 344 334 334 338 137 329 246 101 223 224 259 231 243 237 228 215 228 225 218
217 241 234 235 212 226 228 218 208 227 228 218 134 260 273 285 267 224 297 318 321 329 319 330 288 276 265 264 287 286 224 223 225 232 224 230 238 203 219 225 223 214 234 225
227 200 237 229 227 230 222 217 219 219 232 221 236 252 261 282 260 257 259 267 277 287 293 294 287 285 276 308 286 265 246 234 214 217 248 222 218 219 221 229 241 201 204 223
252 191 244 229 232 218 215 208 214 226 216 230 233 245 261 263 276 250 251 251 248 248 247 247 243 244 240 238 237 232 225 216 206 227 217 220 227 215 222 212 207 213 216 219
250 234 239 222 215 211 208 214 220 220 220 237 235 237 243 256 269 268 253 242 227 227 103 229 231 231 229 225 223 219 216 204 221 226 227 225 200 215 216 213 200 214 246 230
222 213 199 207 205 214 193 213 217 212 222 223 233 240 237 257 258 259 258 266 247 239 234 230 232 228 223 220 222 225 224 231 227 222 213 215 209 201 205 213 224 227 231 211
225 236 201 214 180 209 200 217 213 238 240 244 225 234 234 235 259 253 258 252 251 249 247 244 239 240 234 228 235 237 241 233 235 221 238 198 215 216 217 227 222 215 233 218
172 191 217 209 169 210 204 209 220 232 237 238 235 269 247 234 235 260 247 234 242 238 244 240 235 245 244 240 240 234 241 231 216 228 224 221 225 230 220 223 231 190 182 185
212 200 205 213 196 214 169 210 233 235 224 252 243 275 292 246 236 241 268 238 200 153 228 228 235 270 243 225 225 217 215 216 218 219 224 222 223 228 234 183 184 187 187 190
173 203 183 217 209 219 224 225 227 254 253 236 245 278 296 245 234 234 235 243 253 258 252 242 239 239 239 243 251 248 246 249 248 247 246 241 229 204 190 186 188 189 202 224
232 239 231 215 206 229 229 221 242 260 245 242 245 280 288 271 251 223 223 218 217 231 209 203 201 203 211 206 208 210 211 212 211 209 207 196 189 183 188 212 223 229 236 266
226 232 196 203 237 213 235 236 236 255 237 245 239 275 277 279 238 246 222 224 215 233 217 215 216 215 218 214 209 205 207 197 192 192 213 212 213 224 233 236 237 284 254 224
219 204 177 232 245 238 229 245 239 221 234 238 261 274 274 282 245 235 233 232 231 218 217 228 216 223 221 226 220 217 215 213 210 210 231 235 239 246 263 291 235 219 212 216
231 230 246 239 242 232 214 227 234 236 291 234 292 272 268 268 268 257 235 235 245 231 229 223 218 214 210 206 205 216 251 279 280 270 267 261 248 230 213 212 218 213 194 217
229 230 240 254 251 235 237 214 262 221 194 191 195 195 243 198 196 200 204 215 212 212 205 203 202 203 220 228 241 237 235 229 226 222 221 220 219 215 214 206 161 212 212 211
235 226 239 247 239 238 214 213 205 200 180 187 270 257 240 212 209 209 220 203 199 203 201 219 221 224 219 236 235 224 225 220 219 215 213 211 214 191 168 212 204 217 124 222
235 233 239 245 236 212 188 187 211 218 195 273 263 209 211 209 211 209 205 219 206 203 209 221 218 225 239 231 226 220 215 221 213 210 208 208 201 196 182 198 214 214 225 228
243 246 253 216 240 198 200 200 230 258 210 263 222 217 212 211 210 205 203 216 204 207 215 211 235 240 236 228 223 221 213 217 198 205 202 143 158 212 214 216 218 182 218 252
262 269 241 241 224 202 192 244 210 234 244 226 205 207 207 195 210 217 208 202 212 214 215 226 219 225 231 227 224 217 218 211 210 206 145 160 214 218 215 219 136 242 242 357
241 239 243 229 205 201 204 194 202 213 226 207 209 205 205 202 208 203 203 213 214 221 216 223 226 221 217 229 260 252 244 215 163 204 162 229 229 215 221 230 223 262 454 662
235 243 250 206 200 201 201 200 196 210 206 201 202 207 209 204 206 209 212 224 225 217 225 224 223 218 232 248 251 247 242 145 152 163 193 225 213 220 225 220 245 319 391 369
236 244 219 231 204 213 209 206 204 206 208 209 207 211 211 205 208 212 218 220 223 229 226 224 230 225 231 240 234 172 143 206 202 221 224 211 224 224 236 235 278 403 355 334
238 243 223 218 210 206 210 209 212 215 212 203 204 203 204 209 214 225 227 219 224 225 227 224 225 227 195 192 153 213 157 215 226 219 214 225 230 233 221 234 320 383 343 327
233 230 211 178 214 211 205 210 212 213 159 211 213 205 216 215 217 224 224 222 223 223 225 225 221 224 229 152 204 238 217 207 216 215 225 227 229 216 251 287 326 367 336 323
211 217 220 231 222 221 215 219 222 219 220 219 220 216 216 220 192 212 222 219 222 223 220 218 221 185 226 232 230 229 226 215 217 224 226 228 241 259 282 300 381 357 332 318
225 223 222 221 219 219 218 217 215 219 222 222 223 224 224 223 220 217 219 220 218 217 221 221 193 223 212 219 222 226 221 204 221 227 229 238 276 286 260 325 386 352 325 314
Wind_Speed
25 21 23 21 21 28 29 25 22 33 36 40 38 42 36 38 48 41 32 25 34 40 38 31 22 16 19 23 27 39 47 46 50 46 44 48 51 55 52 57 55 58 60 61
23 24 22 25 21 27 15 19 25 33 37 40 36 32 32 32 37 44 35 18 8 7 12 34 33 42 36 31 32 25 39 44 30 38 40 42 44 44 47 48 54 57 55 56
24 17 18 22 23 18 16 21 27 26 34 34 17 38 30 28 30 23 41 36 34 36 40 51 52 48 39 32 25 28 36 38 36 33 32 34 34 36 44 49 56 53 54 52
20 17 21 23 21 14 14 20 23 29 32 29 30 32 31 28 22 27 30 36 40 44 46 42 36 44 38 28 33 33 33 30 28 30 27 30 32 34 42 47 53 47 46 51
17 13 22 21 14 11 13 15 20 25 28 32 29 29 28 22 23 19 24 26 29 32 34 34 32 32 33 33 33 30 28 28 31 26 30 29 27 33 44 46 46 48 52 54
18 15 20 15 9 10 10 17 20 21 27 28 26 27 25 22 16 20 15 19 18 18 22 21 24 24 24 24 24 25 27 35 29 30 33 33 40 42 46 39 43 50 60 61
14 11 16 2 7 12 14 13 19 18 23 28 27 23 19 19 16 9 17 18 15 16 16 15 17 21 21 20 22 24 26 32 34 35 35 40 33 34 38 43 47 50 59 44
10 14 14 12 8 10 9 18 22 30 26 25 22 19 15 15 7 8 6 14 15 17 14 14 14 14 17 19 21 26 34 35 38 28 36 29 31 35 39 47 46 47 62 53
18 18 15 7 12 11 10 17 23 24 24 24 19 19 15 9 10 6 4 4 2 2 9 9 12 17 18 22 25 19 22 26 26 33 32 31 35 42 39 49 58 42 44 48
21 11 9 19 19 16 9 18 25 22 15 24 19 25 13 9 6 6 2 4 8 14 4 4 3 11 13 10 14 17 21 24 27 32 37 38 42 50 53 37 42 46 51 56
21 18 21 19 10 17 20 22 21 30 24 16 17 22 17 5 1 2 3 3 3 2 7 8 9 11 12 17 22 23 26 28 30 32 34 37 38 37 39 43 48 53 58 64
18 23 27 20 9 20 20 18 25 28 20 17 16 19 14 10 1 4 5 8 8 7 2 3 6 6 7 9 12 15 18 21 24 27 30 33 37 41 45 49 54 59 63 60
25 23 20 13 26 15 23 24 17 20 17 18 14 15 12 12 6 6 5 4 3 4 6 7 8 10 13 15 18 20 23 26 29 32 35 38 41 46 51 54 57 52 54 60
25 21 25 21 24 24 21 23 18 12 15 13 16 12 9 8 7 9 9 9 9 9 9 8 12 14 16 18 22 25 27 30 33 36 42 46 49 53 52 44 47 53 58 63
29 27 24 23 23 22 18 17 18 19 28 13 15 8 6 4 3 5 6 6 5 7 8 12 16 19 23 26 29 31 31 28 29 29 29 31 33 38 45 50 55 59 59 69
32 27 25 25 24 23 23 16 35 18 16 18 17 17 9 17 17 16 14 12 14 16 20 22 25 28 30 31 28 28 26 26 29 32 35 39 43 46 50 54 47 64 69 73
32 29 29 26 26 25 17 19 20 20 25 25 13 13 12 15 17 16 13 21 23 24 26 27 29 31 32 29 28 31 31 33 35 37 41 44 48 45 45 61 63 71 43 82
36 35 33 28 27 26 29 29 22 21 26 15 16 19 19 19 19 20 23 20 27 29 31 31 33 34 30 31 33 34 36 37 39 41 45 48 50 53 53 62 71 76 83 83
37 37 32 31 28 32 29 27 20 13 22 15 19 20 21 22 23 27 29 25 31 33 33 36 33 31 32 35 38 39 38 41 39 44 48 39 43 62 67 72 76 65 80 94
36 32 31 34 27 31 33 19 25 20 18 21 25 26 26 29 27 26 31 34 34 36 38 36 39 38 38 41 42 42 44 44 46 49 40 44 63 68 71 77 48 90 88 95
34 30 34 35 32 32 32 35 30 26 25 26 28 30 31 32 32 35 36 37 39 38 40 41 41 43 44 47 44 47 49 48 41 53 45 67 70 71 79 84 83 99 68 19
36 36 37 39 38 36 37 37 36 31 31 33 34 35 35 35 37 38 40 40 41 43 41 42 43 45 48 48 46 47 48 41 43 47 57 69 69 78 81 83 91 88 58 46
41 39 41 40 40 38 40 40 38 37 37 38 39 37 38 39 41 42 43 43 44 42 43 44 46 46 48 50 48 40 40 54 54 65 68 67 76 79 87 84 89 56 48 45
44 43 44 42 43 43 41 41 40 40 41 40 41 40 42 43 44 44 44 45 45 45 45 46 48 50 40 39 39 53 46 60 65 67 69 75 81 87 76 71 85 45 44 42
47 47 43 36 45 45 43 44 44 44 31 45 45 42 45 45 46 45 47 48 49 49 49 51 52 54 59 41 54 61 60 55 64 68 76 80 84 72 90 87 81 42 41 40
45 47 49 50 50 50 49 48 48 48 48 48 48 49 49 49 40 45 50 51 53 53 51 53 56 48 60 63 63 63 65 62 69 76 80 84 94 91 89 85 53 39 38 38
57 56 55 54 54 54 54 54 53 52 51 50 50 51 51 52 51 52 54 56 56 56 57 59 55 62 57 63 66 69 67 55 75 80 86 91 86 88 77 81 38 35 36 37
Wind_Direction
190 206 219 230 235 257 258 265 280 287 304 307 326 339 340 348 349 353 334 291 257 269 273 270 242 202 156 174 215 202 224 235 232 237 246 251 254 255 261 262 264 269 274 276
212 224 233 246 223 256 263 274 280 290 314 316 340 336 353 6 12 14 35 40 68 135 141 108 117 112 112 118 150 256 209 219 275 231 240 244 247 252 254 260 266 270 274 276
231 222 233 221 257 258 263 277 297 319 315 322 303 352 356 22 37 33 45 60 78 95 114 115 119 118 124 143 168 184 202 211 219 229 239 247 247 259 262 266 265 267 269 278
227 256 209 229 240 253 269 286 284 306 322 331 342 359 354 33 46 61 69 78 85 91 98 110 120 123 129 150 151 162 187 203 222 230 227 239 246 254 260 258 266 270 278 293
198 229 202 220 235 260 287 315 316 311 322 326 338 360 359 6 50 73 83 95 105 111 116 118 127 134 146 157 168 180 195 210 222 216 222 233 245 246 255 269 282 290 294 295
210 216 197 212 248 282 311 308 314 328 330 336 342 358 2 353 50 67 90 112 124 132 279 139 143 149 158 168 179 194 204 220 217 211 219 211 262 254 259 280 282 286 280 297
236 208 208 250 4 295 291 321 325 340 332 337 339 3 1 8 357 56 91 92 119 136 145 151 154 163 172 184 196 201 210 206 207 217 234 239 264 275 278 283 289 296 298 290
236 208 231 247 295 2 15 316 334 326 332 334 339 353 358 5 10 6 30 100 108 121 125 140 159 176 180 201 206 207 203 216 220 246 239 264 267 278 287 290 291 293 291 296
232 232 248 290 272 321 336 335 324 324 328 330 334 340 347 2 0 348 64 77 9 74 153 168 176 180 193 196 206 224 225 238 264 264 270 280 291 293 292 290 287 288 290 294
233 207 230 256 239 294 270 315 317 324 317 331 332 343 322 333 7 357 304 187 250 267 179 224 252 202 219 233 237 240 262 273 276 280 280 283 284 282 280 291 295 297 294 295
234 235 254 260 286 291 289 304 309 317 322 327 332 336 320 319 307 9 40 56 80 178 244 260 275 283 280 278 276 268 267 267 267 268 269 269 276 294 298 294 293 293 295 300
233 242 246 254 246 283 284 303 305 314 314 324 327 324 315 294 271 179 158 138 145 168 183 243 252 259 276 275 279 281 283 285 285 288 289 293 293 288 290 297 300 299 299 302
241 243 211 245 268 268 281 292 289 310 296 314 313 308 310 299 214 200 231 232 252 259 256 259 263 275 275 283 292 293 288 293 292 291 289 292 296 300 300 298 297 301 303 301
244 229 243 264 265 266 271 288 280 275 287 297 302 285 292 287 216 210 220 221 224 261 268 267 278 274 274 275 277 284 291 293 293 292 300 299 297 296 297 301 300 300 301 305
254 260 269 266 261 258 254 265 275 280 293 274 266 261 247 233 204 205 230 246 244 275 279 280 284 288 293 295 294 299 306 306 307 310 311 310 307 301 301 301 303 306 309 310
252 257 263 272 259 262 269 244 288 264 246 256 262 267 227 272 277 282 290 289 288 291 292 294 297 299 305 306 301 303 305 301 299 297 298 299 301 304 307 308 310 310 311 312
254 254 261 256 257 260 234 242 243 247 262 260 199 202 223 272 279 284 293 286 286 293 296 301 303 304 304 300 297 293 294 297 297 299 302 304 307 306 311 312 312 313 313 311
252 257 253 246 250 241 244 253 250 257 255 206 200 266 271 274 279 284 283 290 292 296 301 302 304 304 298 293 292 292 296 297 300 304 307 310 310 312 313 313 313 313 313 318
248 251 249 242 248 233 240 248 248 227 258 214 253 261 267 274 280 282 287 293 296 299 298 301 307 302 296 291 290 292 297 298 308 309 311 310 310 314 314 314 315 318 322 321
250 245 245 244 234 237 246 239 256 248 235 246 271 275 276 280 282 285 288 294 294 296 298 299 300 300 296 291 290 294 298 304 307 310 311 310 313 315 314 316 313 321 321 323
244 246 241 236 234 239 246 250 256 254 248 264 268 271 275 281 282 287 292 295 296 293 297 297 298 297 298 299 309 305 304 305 308 310 309 311 313 315 318 319 323 325 328 327
237 239 235 237 241 244 247 252 257 260 262 266 270 273 276 282 287 292 295 289 291 295 294 295 296 295 309 314 312 309 307 300 305 308 312 314 316 319 320 322 324 331 336 339
236 233 234 235 244 244 249 253 258 261 264 267 271 275 280 289 291 292 292 292 292 292 295 297 304 302 308 312 305 303 299 313 316 312 315 317 321 320 323 324 331 337 334 335
235 234 239 242 248 253 255 260 265 267 270 277 281 285 289 289 288 286 287 289 292 295 298 299 302 304 303 307 295 307 303 311 312 314 317 321 323 323 320 329 335 330 329 329
236 238 250 250 254 259 267 265 265 267 269 274 277 279 282 285 287 288 289 291 294 297 300 301 300 306 310 298 308 311 310 311 315 319 320 322 323 318 325 330 335 326 324 325
253 252 250 247 254 257 262 263 264 267 270 273 276 279 282 285 281 285 289 291 293 295 298 299 301 297 305 307 307 308 310 315 319 320 321 322 323 324 325 332 331 322 320 321
245 249 251 252 254 256 259 263 265 267 269 272 274 276 279 281 283 285 287 289 290 293 295 296 295 301 305 305 307 310 315 318 320 321 321 322 326 326 329 333 324 318 316 317